Batesville, AR

10:10 PM CDT on September 18, 2019 (GMT -0500)
Batesville Regional

Weather History for KBVX - August, 2019

Change the Weather History Date:

Sunday, August 25, 2019

  Actual Average Record
Temperature  
Mean Temperature 76 °F -  
Max Temperature 82 °F 91 °F 103 °F (1978)
Min Temperature 69 °F 65 °F 51 °F (1966)
Cooling Degree Days 10    
Growing Degree Days 26 (Base 50)    
Moisture  
Dew Point 72 °F    
Average Humidity 93    
Maximum Humidity 100    
Minimum Humidity 76    
Precipitation  
Precipitation 0.59 in - - ()
Sea Level Pressure  
Sea Level Pressure 29.91 in    
Wind  
Wind Speed 3 mph ()    
Max Wind Speed 7 mph    
Max Gust Speed 17 mph    
Visibility 9.1 miles    
Events Rain , Thunderstorm    
Averages and records for this station are not official NWS values.
T = Trace of Precipitation, MM = Missing Value Source: Averaged Metar Reports

Daily Weather History Graph

Daily Weather History Graph

Search for Another Location

Airport or City:

Astronomy

Aug. 25, 2019 Rise Set
Actual Time 6:33 AM CDT 7:43 PM CDT
Civil Twilight 6:06 AM CDT 8:10 PM CDT
Nautical Twilight 5:35 AM CDT 8:41 PM CDT
Astronomical Twilight 5:02 AM CDT 9:14 PM CDT
Moon 1:14 AM CDT (8/25) 3:58 PM CDT (8/25)
Length of Visible Light 14h 03m
Length of Day
13h 10m
Waning Crescent, 29% of the Moon is Illuminated
Aug 25
Waning Crescent
Aug 30
New
Sep 5
First Quarter
Sep 13
Full
Sep 21
Last Quarter

Hourly Weather History & Observations

Time (CDT) Temp. Heat Index Dew Point Humidity Pressure Visibility Wind Dir Wind Speed Gust Speed Precip Events Conditions
12:56 AM 72.0 °F - 69.1 °F 91% 30.01 in 10.0 mi NE 3.5 mph - N/A   Overcast
1:56 AM 70.0 °F - 69.1 °F 97% 29.98 in 10.0 mi Calm Calm - 0.19 in Rain Light Rain
2:56 AM 70.0 °F - 69.1 °F 97% 29.98 in 8.0 mi North 3.5 mph - 0.00 in   Overcast
3:09 AM 69.8 °F - 69.8 °F 100% 29.98 in 8.0 mi NNW 3.5 mph - N/A   Overcast
3:56 AM 70.0 °F - 69.1 °F 97% 29.97 in 10.0 mi Calm Calm - 0.00 in Rain Light Rain
4:56 AM 70.0 °F - 69.1 °F 97% 29.95 in 9.0 mi Calm Calm - 0.03 in Rain Light Rain
5:07 AM 69.8 °F - 69.8 °F 100% 29.96 in 10.0 mi ESE 3.5 mph - 0.00 in Rain Light Rain
5:56 AM 70.0 °F - 69.1 °F 97% 29.96 in 6.0 mi Calm Calm - 0.00 in   Overcast
6:56 AM 70.0 °F - 69.1 °F 97% 29.96 in 8.0 mi Calm Calm - N/A   Overcast
7:24 AM 69.8 °F - 68.0 °F 94% 29.97 in 10.0 mi Calm Calm - N/A   Overcast
7:56 AM 70.0 °F - 69.1 °F 97% 29.96 in 10.0 mi Calm Calm - N/A   Overcast
8:26 AM 69.8 °F - 69.8 °F 100% 29.97 in 9.0 mi Calm Calm - N/A   Overcast
8:49 AM 71.6 °F - 69.8 °F 94% 29.97 in 10.0 mi Calm Calm - N/A   Overcast
8:56 AM 72.0 °F - 70.0 °F 93% 29.96 in 9.0 mi Calm Calm - N/A   Overcast
9:56 AM 73.0 °F - 71.1 °F 93% 29.97 in 7.0 mi SE 3.5 mph - N/A   Overcast
10:56 AM 75.0 °F - 72.0 °F 90% 29.97 in 10.0 mi SSE 3.5 mph - N/A   Overcast
11:12 AM 75.2 °F - 73.4 °F 94% 29.98 in 10.0 mi Variable 4.6 mph - N/A   Overcast
11:56 AM 77.0 °F - 72.0 °F 84% 29.96 in 10.0 mi SSE 4.6 mph - N/A   Overcast
12:48 PM 78.8 °F - 73.4 °F 83% 29.95 in 10.0 mi South 5.8 mph - N/A   Overcast
12:56 PM 78.1 °F - 73.9 °F 87% 29.94 in 10.0 mi SSE 6.9 mph - N/A   Overcast
1:09 PM 78.8 °F - 73.4 °F 83% 29.94 in 10.0 mi South 6.9 mph - N/A   Overcast
1:53 PM 78.8 °F - 73.4 °F 83% 29.92 in 10.0 mi South 3.5 mph - N/A   Mostly Cloudy
1:56 PM 80.1 °F 84.5 °F 73.9 °F 81% 29.91 in 10.0 mi Variable 3.5 mph - N/A   Mostly Cloudy
2:56 PM 82.0 °F 87.9 °F 73.9 °F 76% 29.87 in 10.0 mi East 6.9 mph - N/A   Overcast
3:56 PM 79.0 °F - 75.9 °F 90% 29.85 in 10.0 mi Variable 3.5 mph - 0.06 in Rain Light Rain
4:26 PM 80.6 °F 86.2 °F 75.2 °F 84% 29.85 in 10.0 mi South 3.5 mph - 0.00 in   Overcast
4:52 PM 75.2 °F - 73.4 °F 94% 29.86 in 2.0 mi SSE 3.5 mph 17.3 mph 0.28 in Rain Heavy Rain
4:56 PM 75.0 °F - 73.0 °F 94% 29.86 in 1.8 mi SE 3.5 mph - 0.30 in Rain Rain
4:59 PM 75.2 °F - 73.4 °F 94% 29.87 in 2.5 mi Calm Calm - 0.00 in Rain , Thunderstorm Light Thunderstorms and Rain
5:02 PM 75.2 °F - 73.4 °F 94% 29.87 in 6.0 mi Calm Calm - 0.00 in Rain , Thunderstorm Light Thunderstorms and Rain
5:09 PM 75.2 °F - 73.4 °F 94% 29.86 in 10.0 mi SE 4.6 mph - 0.00 in Thunderstorm Thunderstorm
5:17 PM 75.2 °F - 73.4 °F 94% 29.85 in 10.0 mi ESE 4.6 mph - 0.00 in   Mostly Cloudy
5:32 PM 77.0 °F - 75.2 °F 94% 29.85 in 10.0 mi ESE 4.6 mph - 0.00 in Thunderstorm Partly Cloudy
5:52 PM 75.2 °F - 75.2 °F 100% 29.85 in 10.0 mi SSE 4.6 mph - 0.00 in Rain Light Rain
5:56 PM 75.9 °F - 75.0 °F 97% 29.85 in 10.0 mi SSE 5.8 mph - 0.00 in Rain Light Rain
6:56 PM 77.0 °F - 75.0 °F 94% 29.83 in 10.0 mi ESE 5.8 mph - 0.00 in Rain Light Rain
7:56 PM 75.0 °F - 73.9 °F 96% 29.85 in 10.0 mi SE 3.5 mph - 0.01 in   Mostly Cloudy
8:13 PM 75.2 °F - 73.4 °F 94% 29.86 in 10.0 mi SE 4.6 mph - N/A   Mostly Cloudy
8:23 PM 75.2 °F - 73.4 °F 94% 29.87 in 10.0 mi SE 3.5 mph - N/A   Overcast
8:38 PM 75.2 °F - 73.4 °F 94% 29.87 in 10.0 mi ESE 4.6 mph - N/A   Overcast
8:56 PM 75.0 °F - 73.9 °F 96% 29.86 in 10.0 mi ESE 3.5 mph - N/A   Overcast
9:56 PM 75.0 °F - 73.9 °F 96% 29.87 in 10.0 mi East 3.5 mph - 0.00 in Rain Light Rain
10:14 PM 75.2 °F - 73.4 °F 94% 29.88 in 10.0 mi East 4.6 mph - 0.00 in   Overcast
10:34 PM 75.2 °F - 73.4 °F 94% 29.88 in 10.0 mi ESE 5.8 mph - 0.00 in   Overcast
10:45 PM 75.2 °F - 73.4 °F 94% 29.87 in 10.0 mi ESE 5.8 mph - 0.00 in   Overcast
10:56 PM 73.9 °F - 73.0 °F 97% 29.86 in 10.0 mi ESE 3.5 mph - 0.00 in   Mostly Cloudy
11:56 PM 73.9 °F - 73.0 °F 97% 29.86 in 10.0 mi ESE 5.8 mph - N/A   Mostly Cloudy